Regional Weather Roundup
Issued by NWS

Home | Current Version | Previous Version | Graphics & Text | Print | Product List | Glossary On
Versions: 1 2 3 4 5 6 7 8 9 10 11 12 13 14 15 16 17 18 19 20 21 22 23 24 25 26 27 28 29 30 31 32 33 34 35 36 37 38 39 40 41 42 43 44 45 46 47 48 49 50
000
ASUS43 KMKX 072221
RWRWI

WISCONSIN REGIONAL WEATHER ROUNDUP
NATIONAL WEATHER SERVICE MILWAUKEE/SULLIVAN WI
400 PM CST SUN FEB 07 2016

NOTE: "FAIR" INDICATES FEW OR NO CLOUDS BELOW 12,000 FEET WITH NO
SIGNIFICANT WEATHER AND/OR OBSTRUCTIONS TO VISIBILITY.

WIZ001-002-006>008-014>016-023>028-072300-
NORTHWEST WISCONSIN

CITY           SKY/WX    TMP DP  RH WIND       PRES   REMARKS
SUPERIOR ARPT  CLOUDY    34  31  86 W15       29.51R WCI  24
ASHLAND        CLOUDY    35  33  92 SW9       29.50R WCI  28
HAYWARD        LGT SNOW  34  31  88 SW9       29.52R FOG     WCI  27
SIREN          LGT RAIN  34  32  94 W13       29.55S WCI  25
CUMBERLAND     LGT SNOW  34  30  86 W13       29.55S WCI  25
RICE LAKE      FLURRIES  36  30  80 W10G16    29.58R WCI  28
CHETEK         CLOUDY    38  28  68 W12G18    29.57R WCI  30
LADYSMITH      CLOUDY    37  30  76 W9        29.56S WCI  30
EAU CLAIRE     CLOUDY    38  25  59 W13G22    29.58S WCI  30
MENOMONIE      CLOUDY    40  26  58 W10       29.59S WCI  34
NEW RICHMOND   CLOUDY    37  28  70 W15       29.59R WCI  28
OSCEOLA        CLOUDY    37  30  74 W9        29.61S WCI  31
$$

WIZ003>005-009-010-017-018-072300-
NORTH CENTRAL WISCONSIN

CITY           SKY/WX    TMP DP  RH WIND       PRES   REMARKS
MANITOWISH WTR LGT SNOW  33  32  96 SW10      29.48S WCI  25
ARBOR VITAE    FLURRIES  37  33  88 W7        29.50R WCI  31
WOODRUFF       FLURRIES  37  33  88 W7        29.50R WCI  31
RHINELANDER    CLOUDY    34  29  82 SW6       29.52R WCI  29
EAGLE RIVER    LGT SNOW  33  32  96 SW9       29.50R WCI  25
LAND O LAKES   LGT SNOW  33  33  98 SW5       29.50R WCI  29
PHILLIPS       LGT SNOW  33  31  91 SW8       29.51S WCI  27
TOMAHAWK       CLOUDY    35  29  78 SW3       29.53S
MEDFORD        CLOUDY    36  28  72 SW7       29.54R WCI  30
MERRILL        CLOUDY    37  29  73 W9        29.56R WCI  30
$$

WIZ029-030-035-036-043>047-072300-
CENTRAL WISCONSIN

CITY           SKY/WX    TMP DP  RH WIND       PRES   REMARKS
WAUSAU         CLOUDY    39  27  62 W10       29.55R WCI  32
MOSINEE        CLOUDY    37  28  70 W13       29.58R WCI  29
MARSHFIELD     CLOUDY    39  25  57 W12       29.57R WCI  32
STEVENS POINT  CLOUDY    38  26  63 W8G16     29.58S WCI  32
WAUPACA        CLOUDY    42  29  60 SW8       29.60S
WAUTOMA        MOSUNNY   41  27  57 W14       29.62R
WISC RAPIDS    CLOUDY    40  24  53 W15       29.61R WCI  32
CAMP DOUGLAS   MOSUNNY   39  29  68 W16G22    29.63R WCI  30
$$

WIZ011>013-019>022-031-037>040-048>050-072300-
NORTHEAST WISCONSIN

CITY           SKY/WX    TMP DP  RH WIND       PRES   REMARKS
ANTIGO         CLOUDY    35  28  76 W13       29.55R WCI  26
SHAWANO        CLOUDY    41  30  64 SW3       29.58S
OCONTO         CLOUDY    38  31  74 SW5       29.59S WCI  35
STURGEON BAY   CLOUDY    37  28  70 SW9       29.62R WCI  31
GREEN BAY      CLOUDY    39  30  70 SW6       29.61R WCI  35
MANITOWOC      CLOUDY    41  30  65 MISG      29.63R
APPLETON       PTSUNNY   39  28  65 VRB5      29.59R
CLINTONVILLE   CLOUDY    37  28  70 W8        29.59R WCI  31
OSHKOSH        CLOUDY    40  29  64 SW7       29.61R
$$

WIZ032>034-041-042-053>061-072300-
SOUTHWEST WISCONSIN

CITY           SKY/WX    TMP DP  RH WIND       PRES   REMARKS
LA CROSSE      CLOUDY    39  25  57 W14G23    29.66R WCI  31
SPARTA         PTSUNNY   40  27  60 W10G18    29.65S WCI  33
VIROQUA        PTSUNNY   37  26  65 W22       29.66S WCI  26
BOSCOBEL       MOSUNNY   41  25  53 W14G22    29.71R
PRAIRIE DU CHI SUNNY     40  26  56 W14       29.72S WCI  32
PLATTEVILLE    SUNNY     39  28  65 W16       29.71S WCI  30
$$

WIZ056-057-062-063-064-067-068-072300-
SOUTH CENTRAL WISCONSIN

CITY           SKY/WX    TMP DP  RH WIND       PRES   REMARKS
REEDSBURG      SUNNY     39  26  60 W15G23    29.66R WCI  30
BARABOO/DELLS  SUNNY     39  26  58 SW9G17    29.64R WCI  33
LONE ROCK      SUNNY     40  24  53 W18G30    29.69R WCI  31
MINERAL POINT  SUNNY     39  28  65 W14G23    29.69R WCI  31
MADISON        PTSUNNY   40  27  59 SW7       29.66R
MIDDLETON      SUNNY     42  28  57 W12G21    29.67R
WATERTOWN      SUNNY     40  30  65 SW10G20   29.66R WCI  34
MONROE         SUNNY     39  28  65 W23G29    29.70R WCI  29
JANESVILLE     SUNNY     45  28  53 W16G23    29.69R
$$

WIZ051-052-058>065-066-070>072-072300-
SOUTHEAST WISCONSIN

CITY           SKY/WX    TMP DP  RH WIND       PRES   REMARKS
MILWAUKEE      MOSUNNY   44  30  57 W18G24    29.67R
WAUKESHA       MOSUNNY   39  28  65 SW13G23   29.67R WCI  32
MILWAUKEE/TIMM SUNNY     43  28  56 W16       29.66S
RACINE         SUNNY     44  31  60 SW12G21   29.69R
BURLINGTON     SUNNY     41  31  67 SW17G23   29.68S
KENOSHA        SUNNY     43  32  65 SW18      29.68S
FOND DU LAC    CLOUDY    40  30  67 SW9       29.63R WCI  34
SHEBOYGAN      MOSUNNY   40  30  67 SW16      29.64R WCI  31
WEST BEND      SUNNY     41  30  65 SW13G20   29.64S
JUNEAU         SUNNY     39  30  70 SW13      29.66R WCI  32
$$

LSZ147-162-072300-
LAKE SUPERIOR

STATION/POSITION TIME  TEMP    WIND        PRES    WAVE
                       AIR SEA DIR/SP/G            HT/PER
                 (UTC) (F)     (DEG/KT/KT) (MB)    (FT/S)
DEVILS ISLAND    2200   35     240/ 18/ 22  998.5R
PORT WING        2100   36     220/  7/ 12  998.6
SAXON HARBOR     2100   37                  998.3
$$

LMZ867-665-643>646-072300-
LAKE MICHIGAN

STATION/POSITION TIME  TEMP    WIND        PRES    WAVE
                       AIR SEA DIR/SP/G            HT/PER
                 (UTC) (F)     (DEG/KT/KT) (MB)    (FT/S)
CHAMBERS ISLAND  2100   37     190/  7/ 12 1001.7S
NORTHPORT PIER   2100   41     230/  4/ 10 1001.4R
KEWAUNEE LAKESHO 2100   40     200/  7/ 10 1001.9R
SHEBOYGAN LAKESH 2200   43     240/ 12/ 15 1004.4R
PORT WASHINGTON  2140   45     250/ 10/ 17 1004.7R
MILWAUKEE LAKESH 2210   44     240/ 15/ 18   N/A
KENOSHA   LAKESH 2200   44     240/ 13/ 21 1005.4S
$$

TC  - TEMPERATURE IN CELSIUS
VSB - VISIBILITY IN STATUTE MILES
WCI - WIND CHILL INDEX
HX  - HEAT INDEX




USA.gov is the U.S. government's official web portal to all federal, state and local government web resources and services.